Location: Cluj-Napoca
(46.7712°N, 23.6236°E)
Time: 05:42:19
(UTC+03:00)

ISS - Visible Passes

Search period start: 25 July 2017 00:00
Search period end: 04 August 2017 00:00
Orbit: 400 x 408 km, 51.6° (Epoch: 25 July)

Date Brightness Start Highest point End Pass type
(mag) Time Alt. Az. Time Alt. Az. Time Alt. Az.
25 Jul -2.1 01:10:07 10° WNW 01:13:07 33° N 01:16:07 10° ENE visible
25 Jul -3.2 02:46:46 10° WNW 02:49:59 56° NNE 02:53:12 10° E visible
25 Jul -3.1 04:23:25 10° W 04:26:20 30° SW 04:29:15 10° SSE visible
25 Jul -3.9 22:40:38 10° WSW 22:43:53 87° NW 22:47:09 10° ENE visible
26 Jul -2.2 00:17:36 10° WNW 00:20:38 34° N 00:23:40 10° ENE visible
26 Jul -2.3 01:54:26 10° WNW 01:56:44 34° NNW 01:56:44 34° NNW visible
26 Jul -3.8 21:48:22 10° SW 21:51:34 58° SSE 21:54:47 10° ENE visible
26 Jul -2.5 23:25:04 10° W 23:28:10 40° NNW 23:31:16 10° ENE visible
27 Jul -2.3 01:02:03 10° WNW 01:05:06 35° N 01:05:18 35° NNE visible
27 Jul -3.0 22:32:31 10° W 22:35:42 52° NNW 22:38:54 10° ENE visible
28 Jul -2.1 00:09:35 10° WNW 00:12:36 33° N 00:14:18 20° NE visible
28 Jul -1.2 01:46:11 10° WNW 01:46:54 15° WNW 01:46:54 15° WNW visible
28 Jul -3.6 21:40:02 10° WSW 21:43:17 75° NNW 21:46:33 10° ENE visible
28 Jul -2.1 23:17:04 10° WNW 23:20:05 33° N 23:23:05 10° ENE visible
29 Jul -2.2 00:53:50 10° WNW 00:56:01 34° NNW 00:56:01 34° NNW visible
29 Jul -2.3 22:24:29 10° W 22:27:34 38° N 22:30:38 10° ENE visible
30 Jul -2.4 00:01:25 10° WNW 00:04:30 37° N 00:05:12 32° NE visible
30 Jul -2.7 21:31:53 10° W 21:35:03 47° NNW 21:38:13 10° ENE visible
30 Jul -2.2 23:08:57 10° WNW 23:11:57 33° N 23:14:24 14° ENE visible
31 Jul -1.8 00:45:30 10° WNW 00:47:01 25° WNW 00:47:01 25° WNW visible
31 Jul -2.2 22:16:24 10° WNW 22:19:24 33° N 22:22:24 10° ENE visible
31 Jul -3.1 23:53:06 10° WNW 23:56:14 50° NNE 23:56:14 50° NNE visible
01 Aug -2.6 23:00:40 10° WNW 23:03:46 39° NNE 23:05:29 21° ENE visible
02 Aug -1.4 00:37:09 10° WNW 00:38:06 18° WNW 00:38:06 18° WNW visible
02 Aug -2.3 22:08:11 10° WNW 22:11:12 34° N 22:14:13 10° ENE visible
02 Aug -3.3 23:44:41 10° WNW 23:47:21 56° NW 23:47:21 56° NW visible
03 Aug -3.4 22:52:15 10° WNW 22:55:29 56° NNE 22:56:38 33° E visible
